www.pogodaiklimat.ru

Погода и климат >> Архив погоды >> Мексика >> Chihuahua University


ПОГОДА в Chihuahua University

  • Прогноз погоды в Chihuahua University
  • Монитор погоды в Chihuahua University
  • Климат города

АРХИВ ПОГОДЫ в Chihuahua University

Время (UTC), дата Ветер
(напр.,м/с)
 
Видим.   Явления Облачность Т
(С)
Тd
(С)
f
(%)
Тe
(С)
Тes
(С)
Комфортность P
(гПа)
Po
(гПа)
Тmin
(С)
Tmax
(С)
R
(мм)
R24
(мм)
S
(см)
15 9.07 штиль 0 10 км 10/10 500 м
[Sc]
+22.0 +17.7 77 +27 +27 душно 1012.9 866.3
18 9.07 В 5 10 км в посл. час морось 10/10 300 м
[Sc]
+22.0 +18.0 78 +27 +27 душно 1012.8 862.2 0.9
21 9.07 З 3 10 км в посл. час дождь 8/8 480 м
[Sc]
+22.6 +18.6 78 +28 +31 душно 1011.4 865.0 3
00 10.07 В 6 10 км 8/5 1000 м
[Sc As trans]
+26.0 +15.5 52 +29 +29 душно 1010.0 864.4 +19.8 +26.5
03 10.07 СВ 10 2000 м в посл. час гроза 9/5 570 м
[Cb calv Ac As]
+20.6 +15.9 74 +23 +23 комфорт 1011.0 865.6 0.0
06 10.07 ЮВ 6 2000 м в посл. час дождь 9/9 300 м
[Sc]
+19.8 +16.3 80 +22 +22 комфорт 1012.6 866.7 0.6
09 10.07 2000 м в посл. час морось н/о +19.4 +16.8 85 +21 +21 комфорт 1011.4 865.5 0.1
12 10.07 СВ 5 4000 м в посл. час морось 9/9 200 м
[Sc]
+19.6 +17.3 87 +22 +22 комфорт 1012.8 866.0 0.1
15 10.07 В 5 10 км 9/9 450 м
[Sc diur, vesp]
+21.6 +17.9 79 +26 +26 душно 1014.6 867.1
18 10.07 В 1 10 км 5/5 900 м
[Sc]
+25.0 +17.6 64 +29 +41 душно 1013.3 866.4 +19.4 +25.6
21 10.07 В 2 10 км 9/9 1500 м
[Sc]
+29.4 +15.5 43 +32 +34 душно 1008.7 863.5
00 11.07 В 4 10 км в посл. час морось 10/6 1000 м
[Cb calv Ac As]
+25.8 +17.2 59 +30 +30 душно 1007.3 863.1 0.0
03 11.07 В 1 2000 м 9/5 1140 м
[Sc As op]
+23.8 +14.6 56 +26 +26 жарко 1007.4 863.6
06 11.07 штиль 0 2000 м 8/8 840 м
[Sc]
+21.9 +14.9 64 +25 +25 комфорт 1009.3 865.0 +19.4 +30.0
09 11.07 штиль 0 2000 м 4/4 420 м
[Sc]
+19.2 +16.8 86 +21 +21 комфорт 1009.1 864.0
12 11.07 штиль 0 4000 м 1/1 330 м
[Sc diur, vesp]
+18.8 +16.1 84 +20 +20 1010.3 864.1 +18.5 +30.0
15 11.07 штиль 0 9000 м мгла туман 1/0
[As trans]
+22.8 +17.3 71 +28 +37 душно 1011.9 865.2
18 11.07 В 3 10 км 4/0 2000 м
[As trans]
+28.2 +16.1 48 +31 +44 душно 1010.6 864.5 +18.5 +29.0
21 11.07 В 5 10 км 8/8 1500 м
[Sc]
+30.8 +15.5 40 +33 +35 душно 1006.6 862.2
00 12.07 ЮВ 2 10 км 8/0 2000 м
[Ac As]
+31.5 +13.3 33 +33 +34 жарко 1002.9 860.4 +18.5 +32.5
03 12.07 В 1 2000 м 8/4 1500 м
[Sc Ac lent]
+28.3 +14.3 42 +30 +30 жарко 1002.8 861.2
06 12.07 штиль 0 2000 м ясно +23.8 +14.9 57 +27 +27 жарко 1005.1 863.0 +18.5 +32.5
09 12.07 З 5 2000 м 6/6 1170 м
[Sc]
+24.2 +14.7 55 +27 +27 жарко 1006.3 863.4
12 12.07 штиль 0 4000 м 3/3 630 м
[Sc]
+21.2 +15.9 72 +25 +25 комфорт 1007.7 863.6 +21.0 +32.5
15 12.07 ЮВ 1 9000 м мгла туман 8/0
[Cs]
+25.2 +14.9 53 +28 +35 жарко 1010.3 865.1
18 12.07 В 2 10 км 8/0 2000 м
[As trans]
+29.2 +14.1 40 +31 +42 жарко 1009.8 865.0 +21.0 +29.8
21 12.07 В 2 10 км 9/9 1500 м
[Sc]
+30.4 +15.0 39 +33 +34 душно 1007.3 863.5
00 13.07 ЮВ 1 10 км 8/4 1500 м
[Sc As trans]
+32.1 +14.5 34 +34 +35 душно 1004.3 861.9 +21.0 +32.5
03 13.07 В 1 2000 м 6/3 1500 м
[Sc As trans]
+28.8 +13.3 39 +30 +30 жарко 1004.3 862.6
06 13.07 СВ 3 2000 м 8/8 1500 м
[Sc]
+25.8 +13.5 47 +28 +28 жарко 1007.0 864.8 +21.0 +32.5
09 13.07 СВ 4 2000 м 5/5 960 м
[Sc]
+21.8 +13.9 61 +25 +25 комфорт 1007.9 864.8
12 13.07 З 3 4000 м 8/8 870 м
[Sc]
+22.0 +14.8 64 +25 +25 комфорт 1009.8 865.4 +21.8 +32.5
15 13.07 Ю 1 9000 м мгла туман 6/6 1320 м
[Sc diur, vesp]
+26.0 +15.1 51 +29 +32 душно 1011.1 865.9
18 13.07 ЮВ 1 10 км 4/0
[Ac trans]
+29.9 +15.6 42 +33 +51 опасность
солнечного
удара
1010.2 865.4 +21.8 +30.2
21 13.07 ЮВ 1 10 км 8/8 1500 м
[Sc diur, vesp]
+33.9 +17.6 38 +38 +42 очень
душно
1006.1 862.9
00 14.07 ЮВ 3 10 км 6/3 1500 м
[Cu med, cong Ac cast]
+35.1 +11.5 24 +35 +36 очень
жарко
1002.2 861.0 +21.8 +35.8
03 14.07 СВ 2 2000 м 6/4 1500 м
[Sc Ac lent]
+30.3 +12.6 34 +31 +31 жарко 1002.5 862.0
06 14.07 СВ 10 2000 м зарница {морось} 8/8 1000 м
[Sc]
+24.2 +13.7 52 +26 +26 жарко 1005.7 864.5 0.0
09 14.07 штиль 0 2000 м слабая морось 9/9 1000 м
[Sc]
+22.4 +14.3 60 +26 +26 жарко 1008.6 865.9 0.2
12 14.07 З 6 4000 м в посл. час морось 9/9 600 м
[Sc]
+20.6 +15.2 71 +23 +23 комфорт 1009.7 865.4 0.2
15 14.07 ЮВ 1 9000 м мгла туман 9/9 1050 м
[Sc diur, vesp]
+25.4 +16.8 59 +29 +30 душно 1011.0 865.6
18 14.07 ЮВ 2 10 км 1/0
[Cs]
+30.2 +13.6 36 +32 +52 опасность
солнечного
удара
1009.9 864.9 +20.4 +30.2
21 14.07 ЮВ 1 10 км 5/0
[Ac cuf]
+33.4 +14.5 32 +35 +48 душно 1005.7 862.4
00 15.07 ЮВ 1 10 км 8/0
[Ac lent]
+34.2 +15.6 33 +36 +38 душно 1001.8 860.4 +20.4 +35.0
03 15.07 ЮВ 1 2000 м 3/3 1500 м
[Sc]
+29.4 +13.3 37 +31 +31 жарко 1002.2 861.5
06 15.07 З 4 2000 м 5/5 1500 м
[Sc]
+26.8 +13.3 43 +29 +29 жарко 1004.7 863.5 +20.4 +35.0
09 15.07 СВ 3 2000 м слабая морось 9/9 1410 м
[Sc]
+24.6 +13.1 49 +27 +27 жарко 1005.8 863.7 0.1
12 15.07 З 2 4000 м {морось} 5/3 1000 м
[Sc Ac lent Cs]
+23.4 +14.1 56 +27 +27 душно 1007.5 864.0 0.1
15 15.07 В 2 8000 м мгла 4/0 2000 м
[Ac lent Cs]
+26.2 +15.7 52 +29 +35 жарко 1007.3 863.2
18 15.07 Ю 2 10 км 5/1 1500 м
[Cb calv Ac lent Cs]
+32.2 +15.5 37 +35 +49 очень
душно
1007.5 863.7 +22.6 +32.5
21 15.07 Ю 1 10 км 6/6 1500 м
[Sc diur, vesp]
+34.2 +18.5 40 +39 +47 очень
душно
1003.6 861.2
00 16.07 В 3 10 км 8/8 1000 м
[Sc]
+25.4 +15.5 54 +28 +29 жарко 1002.9 861.5 +22.6 +35.5
03 16.07 В 2 2000 м 8/8 1350 м
[Sc]
+26.0 +15.0 51 +29 +29 душно 1003.7 862.2
06 16.07 ЮЗ 7 2000 м сильная метель 6/6 900 м
[Sc diur, vesp]
+22.8 +14.9 61 +27 +27 душно 1007.9 865.2 +22.6 +35.5
09 16.07 Ю 3 2000 м 5/5 900 м
[Sc diur, vesp]
+21.6 +14.2 63 +25 +25 комфорт 1008.6 864.6

 

Местоположение метеостанции Chihuahua University (Мексика): широта 28.63 долгота -106.00 высота над уровнем моря 1433 м.

В архиве по умолчанию представлена погода в Chihuahua University за последнюю неделю. Архивные данные за месяц целиком и за предыдущие месяцы, начиная с января 2011 года, Вы можете получить, выбрав интересующий диапазон дат из раскрывающегося списка и нажав кнопку "Ввод!".


*Определитесь, кто Вы:
робот инопланетянин человек

Внимание! Время в таблицах - всемирное. Для получения местного времени необходимо прибавить поправку, которая в Chihuahua University равна -6 ч.

Смотрите также архив погоды в соседних городах и на ближайших метеорологических станциях:

Погода в Chihuahua (Мексика) (11 км)
Погода в Temosachic (Мексика) (179 км)
Погода в Hidalgo del Parral (Мексика) (193 км)
Погода в Nueva Casas Grandes (Мексика) (267 км)
Погода в Choix (Мексика) (303 км)
Погода в Tepehuanes (Мексика) (367 км)
Погода в Ciudad Obregon (Мексика) (401 км)
Погода в Pilares de Nacoz (Мексика) (405 км)
Погода в Torreon (Мексика) (430 км)
Погода в Culiacan (Мексика) (448 км)

Пояснения к столбцам:

Ветер - указаны скорость ветра в м/с - средняя за 10 мин, порывы в срок и между сроками (в фигурных скобках) и направление, откуда дует ветер: С - северный, СВ - северо-восточный, В - восточный, ЮВ - юго-восточный, Ю - южный, ЮЗ - юго-западный, З - западный, СЗ - северо-западный.
Видимость - горизонтальная дальность видимости в метрах или километрах. При видимости от 1 до 10 км при отсутствии осадков обычно наблюдается дымка, при ухудшении видимости до 1 км и менее - туман. В сухую погоду видимость может ухудшаться дымом, пылью или мглою.
Явления - указаны атмосферные явления, наблюдавшиеся в срок или в последний час перед сроком; фигурными скобками обозначены явления, наблюдавшиеся между сроками (за 1-3 часа до срока); квадратными скобками обозначены град или гололедные отложения с указанием их диаметра в мм.
Облачность - указаны через наклонную черту общая и нижняя облачность в баллах и высота нижней границы облаков в метрах; квадратными скобками обозначены формы облаков: Ci - перистые, Cs - перисто-слоистые, Cc - перисто-кучевые, Ac - высококучевые, As - высокослоистые, Sc - слоисто-кучевые, Ns - слоисто-дождевые, Cu - кучевые, Cb - кучево-дождевые. Подробнее классификацию облаков см. в Атласе облаков (PDF).
T - Температура воздуха - температура, измеренная на высоте 2 м над землей.
Td - Температура точки росы - температура, при понижении до которой содержащийся в воздухе водяной пар достигнет насыщения.
f - Относительная влажность воздуха - влажноcть воздуха, измеренная на высоте 2 м над землей.
Te - Эффективная температура - температура, которую ощущает одетый по сезону человек в тени. Характеристика душности погоды. При расчете учитывается влияние влажности воздуха и скорости ветра на теплоощущения человека.
Tes - Эффективная температура на солнце - температура, которую ощущает человек, с поправкой на солнечный нагрев. Характеристика знойности погоды. Зависит от высоты солнца над горизонтом, облачности и скорости ветра. Ночью, в пасмурную погоду, а также при ветре 12 м/с и более поправка равна нулю.
P - Атмосферное давление - приведенное к уровню моря атмосферное давление.
Po - Атмосферное давление - измеренное на уровне метеостанции атмосферное давление.
Tmin - Минимальная температура - минимум температуры воздуха на высоте 2 м над землей.
Tmax - Максимальная температура - максимум температуры воздуха на высоте 2 м над землей.
R - Количество осадков - Количество выпавших осадков за период времени, мм. При наведении курсора мыши на число - период времени, за который выпало указанное количество осадков.
R24 - Количество осадков - Количество выпавших осадков за 24 часа, мм.
S - Снежный покров - Высота снежного покрова, см. При наведении курсора мыши на число - состояние снежного покрова и степень покрытия местности в баллах.